Time,TemperatureF,DewpointF,PressureIn,WindDirection,WindDirectionDegrees,WindSpeedMPH,WindSpeedGustMPH,Humidity,HourlyPrecipIn,Conditions,Clouds,dailyrainin,SoftwareType,DateUTC
2013-06-23 00:05:00,74.6,67.3,29.89,East,100,1.0,1.0,78,0.00,,,0.00,Wunderground v.1.15,2013-06-23 05:05:00,
2013-06-23 00:15:00,74.2,67.3,29.89,SE,126,0.0,0.0,79,0.00,,,0.00,Wunderground v.1.15,2013-06-23 05:15:00,
2013-06-23 00:19:00,74.2,67.6,29.89,SE,138,0.0,0.0,80,0.00,,,0.00,Wunderground v.1.15,2013-06-23 05:19:00,
2013-06-23 00:25:00,74.0,67.4,29.89,ESE,117,1.0,1.0,80,0.00,,,0.00,Wunderground v.1.15,2013-06-23 05:25:00,
2013-06-23 00:35:00,74.0,67.8,29.89,East,101,1.0,2.0,81,0.00,,,0.00,Wunderground v.1.15,2013-06-23 05:35:00,
2013-06-23 00:45:00,73.9,67.7,29.89,SE,126,1.0,1.0,81,0.00,,,0.00,Wunderground v.1.15,2013-06-23 05:45:00,
2013-06-23 00:55:00,73.9,67.7,29.89,SE,130,1.0,2.0,81,0.00,,,0.00,Wunderground v.1.15,2013-06-23 05:55:00,
2013-06-23 01:05:00,73.7,67.5,29.89,East,84,1.0,4.0,81,0.00,,,0.00,Wunderground v.1.15,2013-06-23 06:05:00,
2013-06-23 01:14:00,73.7,67.5,29.89,East,82,1.0,1.0,81,0.00,,,0.00,Wunderground v.1.15,2013-06-23 06:14:00,
2013-06-23 01:19:00,73.7,67.9,29.88,ESE,102,1.0,1.0,82,0.00,,,0.00,Wunderground v.1.15,2013-06-23 06:19:00,
2013-06-23 01:25:00,73.7,67.5,29.88,ESE,102,1.0,4.0,81,0.00,,,0.00,Wunderground v.1.15,2013-06-23 06:25:00,
2013-06-23 01:35:00,73.5,67.7,29.87,SSE,164,1.0,3.0,82,0.00,,,0.00,Wunderground v.1.15,2013-06-23 06:35:00,
2013-06-23 01:44:00,73.5,67.7,29.87,SSE,150,1.0,1.0,82,0.00,,,0.00,Wunderground v.1.15,2013-06-23 06:44:00,
2013-06-23 01:50:00,73.5,67.7,29.87,East,98,1.0,2.0,82,0.00,,,0.00,Wunderground v.1.15,2013-06-23 06:50:00,
2013-06-23 01:59:00,73.5,67.7,29.87,East,92,1.0,1.0,82,0.00,,,0.00,Wunderground v.1.15,2013-06-23 06:59:00,
2013-06-23 02:05:00,73.3,67.1,29.87,ENE,78,0.0,1.0,81,0.00,,,0.00,Wunderground v.1.15,2013-06-23 07:05:00,
2013-06-23 02:15:00,73.3,67.1,29.87,East,90,0.0,1.0,81,0.00,,,0.00,Wunderground v.1.15,2013-06-23 07:15:00,
2013-06-23 02:25:00,73.0,67.2,29.86,SSW,197,0.0,2.0,82,0.00,,,0.00,Wunderground v.1.15,2013-06-23 07:25:00,
2013-06-23 02:34:00,73.0,67.2,29.86,South,178,1.0,1.0,82,0.00,,,0.00,Wunderground v.1.15,2013-06-23 07:34:00,
2013-06-23 02:39:00,72.8,67.0,29.86,SSE,148,1.0,1.0,82,0.00,,,0.00,Wunderground v.1.15,2013-06-23 07:39:00,
2013-06-23 02:45:00,72.8,67.0,29.86,South,191,1.0,3.0,82,0.00,,,0.00,Wunderground v.1.15,2013-06-23 07:45:00,
2013-06-23 02:55:00,72.7,66.9,29.86,SSW,200,0.0,1.0,82,0.00,,,0.00,Wunderground v.1.15,2013-06-23 07:55:00,
2013-06-23 03:05:00,72.5,66.7,29.85,SSW,199,1.0,1.0,82,0.00,,,0.00,Wunderground v.1.15,2013-06-23 08:05:00,
2013-06-23 03:14:00,72.3,66.5,29.85,SE,126,0.0,2.0,82,0.00,,,0.00,Wunderground v.1.15,2013-06-23 08:14:00,
2013-06-23 03:19:00,72.3,66.1,29.85,SE,126,0.0,0.0,81,0.00,,,0.00,Wunderground v.1.15,2013-06-23 08:19:00,
2013-06-23 03:25:00,72.3,66.5,29.85,South,173,1.0,1.0,82,0.00,,,0.00,Wunderground v.1.15,2013-06-23 08:25:00,
2013-06-23 03:35:00,72.1,66.3,29.84,South,184,1.0,1.0,82,0.00,,,0.00,Wunderground v.1.15,2013-06-23 08:35:00,
2013-06-23 03:45:00,72.1,66.3,29.84,ESE,122,1.0,2.0,82,0.00,,,0.00,Wunderground v.1.15,2013-06-23 08:45:00,
2013-06-23 03:55:00,72.0,66.6,29.83,ESE,118,0.0,1.0,83,0.00,,,0.00,Wunderground v.1.15,2013-06-23 08:55:00,
2013-06-23 04:04:00,72.1,66.6,29.84,ENE,77,1.0,1.0,83,0.00,,,0.00,Wunderground v.1.15,2013-06-23 09:04:00,
2013-06-23 04:15:00,72.1,66.6,29.84,SE,130,0.0,1.0,83,0.00,,,0.00,Wunderground v.1.15,2013-06-23 09:15:00,
2013-06-23 04:25:00,72.1,66.6,29.84,SSE,158,1.0,1.0,83,0.00,,,0.00,Wunderground v.1.15,2013-06-23 09:25:00,
2013-06-23 04:35:00,72.1,67.0,29.84,SE,134,2.0,2.0,84,0.00,,,0.00,Wunderground v.1.15,2013-06-23 09:35:00,
2013-06-23 04:44:00,72.3,66.8,29.84,South,171,1.0,5.0,83,0.00,,,0.00,Wunderground v.1.15,2013-06-23 09:44:00,
2013-06-23 04:49:00,72.3,66.8,29.85,South,171,1.0,1.0,83,0.00,,,0.00,Wunderground v.1.15,2013-06-23 09:49:00,
2013-06-23 04:55:00,72.3,66.8,29.85,SSE,157,1.0,1.0,83,0.00,,,0.00,Wunderground v.1.15,2013-06-23 09:55:00,
2013-06-23 05:05:00,72.3,66.8,29.85,SSE,155,0.0,0.0,83,0.00,,,0.00,Wunderground v.1.15,2013-06-23 10:05:00,
2013-06-23 05:15:00,72.0,66.9,29.85,SSE,155,0.0,0.0,84,0.00,,,0.00,Wunderground v.1.15,2013-06-23 10:15:00,
2013-06-23 05:25:00,71.8,66.7,29.86,SSE,158,0.0,0.0,84,0.00,,,0.00,Wunderground v.1.15,2013-06-23 10:25:00,
2013-06-23 05:35:00,71.5,66.4,29.86,SSE,158,0.0,0.0,84,0.00,,,0.00,Wunderground v.1.15,2013-06-23 10:35:00,
2013-06-23 05:45:00,71.1,66.4,29.86,SSE,158,0.0,0.0,85,0.00,,,0.00,Wunderground v.1.15,2013-06-23 10:45:00,
2013-06-23 05:55:00,70.9,66.5,29.86,SSE,158,0.0,0.0,86,0.00,,,0.00,Wunderground v.1.15,2013-06-23 10:55:00,
2013-06-23 06:05:00,70.9,66.5,29.86,SSE,158,0.0,0.0,86,0.00,,,0.00,Wunderground v.1.15,2013-06-23 11:05:00,
2013-06-23 06:15:00,70.6,66.2,29.86,SSE,158,0.0,0.0,86,0.00,,,0.00,Wunderground v.1.15,2013-06-23 11:15:00,
2013-06-23 06:25:00,70.3,66.2,29.86,SSE,158,0.0,0.0,87,0.00,,,0.00,Wunderground v.1.15,2013-06-23 11:25:00,
2013-06-23 06:34:00,70.3,66.2,29.87,SSE,158,0.0,1.0,87,0.00,,,0.00,Wunderground v.1.15,2013-06-23 11:34:00,
2013-06-23 06:39:00,70.4,66.3,29.87,SSE,158,0.0,0.0,87,0.00,,,0.00,Wunderground v.1.15,2013-06-23 11:39:00,
2013-06-23 06:49:00,70.8,66.7,29.87,SSE,158,0.0,1.0,87,0.00,,,0.00,Wunderground v.1.15,2013-06-23 11:49:00,
2013-06-23 07:00:00,71.3,67.2,29.87,SSE,158,0.0,2.0,87,0.00,,,0.00,Wunderground v.1.15,2013-06-23 12:00:00,
2013-06-23 07:09:00,71.8,67.4,29.86,SE,139,0.0,0.0,86,0.00,,,0.00,Wunderground v.1.15,2013-06-23 12:09:00,
2013-06-23 07:19:00,72.3,67.9,29.87,SE,140,0.0,0.0,86,0.00,,,0.00,Wunderground v.1.15,2013-06-23 12:19:00,
2013-06-23 07:30:00,72.8,68.0,29.87,SE,139,0.0,0.0,85,0.00,,,0.00,Wunderground v.1.15,2013-06-23 12:30:00,
2013-06-23 07:39:00,73.7,68.2,29.88,South,171,1.0,1.0,83,0.00,,,0.00,Wunderground v.1.15,2013-06-23 12:39:00,
2013-06-23 07:45:00,74.0,68.2,29.88,SE,146,1.0,1.0,82,0.00,,,0.00,Wunderground v.1.15,2013-06-23 12:45:00,
2013-06-23 07:54:00,74.6,68.4,29.88,SSE,150,1.0,1.0,81,0.00,,,0.00,Wunderground v.1.15,2013-06-23 12:54:00,
2013-06-23 08:05:00,75.3,69.1,29.87,SSE,158,2.0,3.0,81,0.00,,,0.00,Wunderground v.1.15,2013-06-23 13:05:00,
2013-06-23 08:14:00,76.0,69.4,29.87,South,178,1.0,4.0,80,0.00,,,0.00,Wunderground v.1.15,2013-06-23 13:14:00,
2013-06-23 08:25:00,76.7,69.7,29.87,SSE,165,2.0,5.0,79,0.00,,,0.00,Wunderground v.1.15,2013-06-23 13:25:00,
2013-06-23 08:34:00,77.4,70.0,29.87,SSE,150,2.0,3.0,78,0.00,,,0.00,Wunderground v.1.15,2013-06-23 13:34:00,
2013-06-23 08:44:00,78.1,70.3,29.87,South,186,2.0,3.0,77,0.00,,,0.00,Wunderground v.1.15,2013-06-23 13:44:00,
2013-06-23 08:54:00,78.6,70.4,29.87,East,101,3.0,3.0,76,0.00,,,0.00,Wunderground v.1.15,2013-06-23 13:54:00,
2013-06-23 09:05:00,79.2,71.0,29.87,SSE,163,1.0,4.0,76,0.00,,,0.00,Wunderground v.1.15,2013-06-23 14:05:00,
2013-06-23 09:14:00,79.4,70.8,29.87,ESE,113,3.0,3.0,75,0.00,,,0.00,Wunderground v.1.15,2013-06-23 14:14:00,
2013-06-23 09:25:00,79.4,70.4,29.88,SE,134,3.0,4.0,74,0.00,,,0.00,Wunderground v.1.15,2013-06-23 14:25:00,
2013-06-23 09:35:00,80.3,71.3,29.87,SE,138,3.0,4.0,74,0.00,,,0.00,Wunderground v.1.15,2013-06-23 14:35:00,
2013-06-23 09:45:00,81.1,72.0,29.87,SSE,155,2.0,7.0,74,0.00,,,0.00,Wunderground v.1.15,2013-06-23 14:45:00,
2013-06-23 09:55:00,81.4,71.9,29.87,South,169,4.0,5.0,73,0.00,,,0.00,Wunderground v.1.15,2013-06-23 14:55:00,
2013-06-23 10:05:00,82.2,72.3,29.87,South,176,3.0,5.0,72,0.00,,,0.00,Wunderground v.1.15,2013-06-23 15:05:00,
2013-06-23 10:15:00,82.4,71.2,29.87,SSW,194,5.0,7.0,69,0.00,,,0.00,Wunderground v.1.15,2013-06-23 15:15:00,
2013-06-23 10:25:00,82.6,71.4,29.88,SSE,161,6.0,6.0,69,0.00,,,0.00,Wunderground v.1.15,2013-06-23 15:25:00,
2013-06-23 10:35:00,83.4,72.6,29.88,South,169,5.0,6.0,70,0.00,,,0.00,Wunderground v.1.15,2013-06-23 15:35:00,
2013-06-23 10:44:00,83.8,71.7,29.88,SSE,155,5.0,9.0,67,0.00,,,0.00,Wunderground v.1.15,2013-06-23 15:44:00,
2013-06-23 10:49:00,83.8,72.1,29.87,SSE,167,6.0,10.0,68,0.00,,,0.00,Wunderground v.1.15,2013-06-23 15:49:00,
2013-06-23 11:00:00,84.1,72.0,29.87,SSE,164,4.0,4.0,67,0.00,,,0.00,Wunderground v.1.15,2013-06-23 16:00:00,
2013-06-23 11:05:00,84.3,72.6,29.87,ESE,119,4.0,10.0,68,0.00,,,0.00,Wunderground v.1.15,2013-06-23 16:05:00,
2013-06-23 11:14:00,84.3,71.7,29.87,South,173,5.0,5.0,66,0.00,,,0.00,Wunderground v.1.15,2013-06-23 16:14:00,
2013-06-23 11:25:00,84.1,72.0,29.88,SE,137,4.0,5.0,67,0.00,,,0.00,Wunderground v.1.15,2013-06-23 16:25:00,
2013-06-23 11:39:00,85.1,72.5,29.88,WSW,248,4.0,5.0,66,0.00,,,0.00,Wunderground v.1.15,2013-06-23 16:39:00,
2013-06-23 11:45:00,85.1,72.0,29.88,SSE,148,4.0,5.0,65,0.00,,,0.00,Wunderground v.1.15,2013-06-23 16:45:00,
2013-06-23 11:54:00,85.1,71.5,29.88,South,189,4.0,4.0,64,0.00,,,0.00,Wunderground v.1.15,2013-06-23 16:54:00,
2013-06-23 11:59:00,85.7,72.1,29.88,SE,144,4.0,7.0,64,0.00,,,0.00,Wunderground v.1.15,2013-06-23 16:59:00,
2013-06-23 12:05:00,86.1,73.0,29.88,South,184,3.0,7.0,65,0.00,,,0.00,Wunderground v.1.15,2013-06-23 17:05:00,
2013-06-23 12:09:00,86.5,71.9,29.88,South,190,4.0,5.0,62,0.00,,,0.00,Wunderground v.1.15,2013-06-23 17:09:00,
2013-06-23 12:15:00,87.0,71.9,29.88,SSW,196,4.0,5.0,61,0.00,,,0.00,Wunderground v.1.15,2013-06-23 17:15:00,
2013-06-23 12:24:00,87.0,71.4,29.88,SSE,161,5.0,7.0,60,0.00,,,0.00,Wunderground v.1.15,2013-06-23 17:24:00,
2013-06-23 12:29:00,87.0,72.9,29.88,South,178,5.0,9.0,63,0.00,,,0.00,Wunderground v.1.15,2013-06-23 17:29:00,
2013-06-23 12:40:00,87.2,72.6,29.89,SSE,157,4.0,6.0,62,0.00,,,0.00,Wunderground v.1.15,2013-06-23 17:40:00,
2013-06-23 12:50:00,87.6,72.0,29.88,SSW,201,3.0,4.0,60,0.00,,,0.00,Wunderground v.1.15,2013-06-23 17:50:00,
2013-06-23 12:59:00,88.2,72.1,29.88,South,177,4.0,4.0,59,0.00,,,0.00,Wunderground v.1.15,2013-06-23 17:59:00,
2013-06-23 13:05:00,88.2,71.6,29.87,SSE,167,4.0,4.0,58,0.00,,,0.00,Wunderground v.1.15,2013-06-23 18:05:00,
2013-06-23 13:15:00,87.4,72.3,29.87,SSW,193,3.0,4.0,61,0.00,,,0.00,Wunderground v.1.15,2013-06-23 18:15:00,
2013-06-23 13:25:00,87.8,71.2,29.88,South,184,4.0,4.0,58,0.00,,,0.00,Wunderground v.1.15,2013-06-23 18:25:00,
2013-06-23 13:34:00,87.4,71.8,29.88,SSE,167,4.0,4.0,60,0.00,,,0.00,Wunderground v.1.15,2013-06-23 18:34:00,
2013-06-23 13:45:00,87.4,72.3,29.88,South,173,3.0,4.0,61,0.00,,,0.00,Wunderground v.1.15,2013-06-23 18:45:00,
2013-06-23 13:54:00,88.4,71.7,29.87,West,270,4.0,4.0,58,0.00,,,0.00,Wunderground v.1.15,2013-06-23 18:54:00,
2013-06-23 14:05:00,88.8,71.6,29.86,South,171,4.0,9.0,57,0.00,,,0.00,Wunderground v.1.15,2013-06-23 19:05:00,
2013-06-23 14:14:00,89.0,71.3,29.86,SSE,148,4.0,6.0,56,0.00,,,0.00,Wunderground v.1.15,2013-06-23 19:14:00,
2013-06-23 14:25:00,89.0,71.3,29.86,South,191,3.0,6.0,56,0.00,,,0.00,Wunderground v.1.15,2013-06-23 19:25:00,
2013-06-23 14:34:00,89.7,70.8,29.86,SSE,154,3.0,4.0,54,0.00,,,0.00,Wunderground v.1.15,2013-06-23 19:34:00,
2013-06-23 14:45:00,89.0,71.8,29.86,SSE,163,4.0,8.0,57,0.00,,,0.00,Wunderground v.1.15,2013-06-23 19:45:00,
2013-06-23 14:55:00,89.0,71.8,29.85,South,169,4.0,4.0,57,0.00,,,0.00,Wunderground v.1.15,2013-06-23 19:55:00,
2013-06-23 15:05:00,89.3,71.5,29.84,SW,216,4.0,7.0,56,0.00,,,0.00,Wunderground v.1.15,2013-06-23 20:05:00,
2013-06-23 15:14:00,89.5,69.5,29.84,SSE,158,5.0,9.0,52,0.00,,,0.00,Wunderground v.1.15,2013-06-23 20:14:00,
2013-06-23 15:19:00,89.3,69.9,29.84,SSE,165,5.0,5.0,53,0.00,,,0.00,Wunderground v.1.15,2013-06-23 20:19:00,
2013-06-23 15:25:00,89.0,70.7,29.84,South,169,4.0,5.0,55,0.00,,,0.00,Wunderground v.1.15,2013-06-23 20:25:00,
2013-06-23 15:35:00,89.9,70.5,29.83,SSW,208,3.0,5.0,53,0.00,,,0.00,Wunderground v.1.15,2013-06-23 20:35:00,
2013-06-23 15:44:00,89.7,69.2,29.83,SSE,163,5.0,5.0,51,0.00,,,0.00,Wunderground v.1.15,2013-06-23 20:44:00,
2013-06-23 15:49:00,89.7,69.2,29.83,South,178,4.0,4.0,51,0.00,,,0.00,Wunderground v.1.15,2013-06-23 20:49:00,
2013-06-23 15:59:00,90.1,68.4,29.83,SW,223,4.0,4.0,49,0.00,,,0.00,Wunderground v.1.15,2013-06-23 20:59:00,
2013-06-23 16:05:00,90.1,70.1,29.83,SSE,167,4.0,4.0,52,0.00,,,0.00,Wunderground v.1.15,2013-06-23 21:05:00,
2013-06-23 16:15:00,89.9,71.0,29.83,SSE,155,4.0,4.0,54,0.00,,,0.00,Wunderground v.1.15,2013-06-23 21:15:00,
2013-06-23 16:25:00,90.1,70.1,29.83,SSW,209,4.0,6.0,52,0.00,,,0.00,Wunderground v.1.15,2013-06-23 21:25:00,
2013-06-23 16:35:00,90.1,70.1,29.82,South,173,3.0,4.0,52,0.00,,,0.00,Wunderground v.1.15,2013-06-23 21:35:00,
2013-06-23 16:44:00,89.9,71.0,29.82,SSE,167,4.0,4.0,54,0.00,,,0.00,Wunderground v.1.15,2013-06-23 21:44:00,
2013-06-23 16:49:00,89.5,69.5,29.81,SSE,161,4.0,4.0,52,0.00,,,0.00,Wunderground v.1.15,2013-06-23 21:49:00,
2013-06-23 16:55:00,89.5,69.5,29.81,South,175,3.0,4.0,52,0.00,,,0.00,Wunderground v.1.15,2013-06-23 21:55:00,
2013-06-23 17:04:00,89.7,69.2,29.81,SSE,167,3.0,4.0,51,0.00,,,0.00,Wunderground v.1.15,2013-06-23 22:04:00,
2013-06-23 17:09:00,89.5,67.8,29.81,SSW,195,3.0,7.0,49,0.00,,,0.00,Wunderground v.1.15,2013-06-23 22:09:00,
2013-06-23 17:19:00,88.8,68.3,29.80,SSW,198,6.0,10.0,51,0.00,,,0.00,Wunderground v.1.15,2013-06-23 22:19:00,
2013-06-23 17:29:00,88.6,68.2,29.80,SSE,162,6.0,6.0,51,0.00,,,0.00,Wunderground v.1.15,2013-06-23 22:29:00,
2013-06-23 17:35:00,88.4,68.0,29.78,South,191,6.0,6.0,51,0.00,,,0.00,Wunderground v.1.15,2013-06-23 22:35:00,
2013-06-23 17:44:00,88.4,68.0,29.78,South,175,6.0,6.0,51,0.00,,,0.00,Wunderground v.1.15,2013-06-23 22:44:00,
2013-06-23 17:50:00,88.4,66.8,29.79,South,189,6.0,6.0,49,0.00,,,0.00,Wunderground v.1.15,2013-06-23 22:50:00,
2013-06-23 18:00:00,88.4,68.5,29.79,SSE,155,5.0,5.0,52,0.00,,,0.00,Wunderground v.1.15,2013-06-23 23:00:00,
2013-06-23 18:05:00,88.4,68.0,29.79,SSE,147,3.0,5.0,51,0.00,,,0.00,Wunderground v.1.15,2013-06-23 23:05:00,
2013-06-23 18:10:00,88.4,67.4,29.79,SSW,193,3.0,5.0,50,0.00,,,0.00,Wunderground v.1.15,2013-06-23 23:10:00,
2013-06-23 18:20:00,88.0,67.0,29.79,South,182,3.0,3.0,50,0.00,,,0.00,Wunderground v.1.15,2013-06-23 23:20:00,
2013-06-23 18:30:00,88.0,67.6,29.79,SSE,161,1.0,1.0,51,0.00,,,0.00,Wunderground v.1.15,2013-06-23 23:30:00,
2013-06-23 18:40:00,87.8,68.5,29.79,SSE,162,1.0,2.0,53,0.00,,,0.00,Wunderground v.1.15,2013-06-23 23:40:00,
2013-06-23 18:50:00,87.4,67.1,29.80,SSE,158,3.0,3.0,51,0.00,,,0.00,Wunderground v.1.15,2013-06-23 23:50:00,
2013-06-23 19:00:00,87.2,67.4,29.80,South,178,2.0,2.0,52,0.00,,,0.00,Wunderground v.1.15,2013-06-24 00:00:00,
2013-06-23 19:05:00,87.0,67.2,29.79,South,171,2.0,2.0,52,0.00,,,0.00,Wunderground v.1.15,2013-06-24 00:05:00,
2013-06-23 19:10:00,86.7,67.5,29.79,South,173,3.0,3.0,53,0.00,,,0.00,Wunderground v.1.15,2013-06-24 00:10:00,
2013-06-23 19:20:00,86.3,67.2,29.80,South,180,2.0,2.0,53,0.00,,,0.00,Wunderground v.1.15,2013-06-24 00:20:00,
2013-06-23 19:29:00,85.9,67.3,29.80,South,174,1.0,4.0,54,0.00,,,0.00,Wunderground v.1.15,2013-06-24 00:29:00,
2013-06-23 19:35:00,85.7,67.7,29.80,South,174,1.0,4.0,55,0.00,,,0.00,Wunderground v.1.15,2013-06-24 00:35:00,
2013-06-23 19:45:00,85.3,68.3,29.80,South,175,0.0,1.0,57,0.00,,,0.00,Wunderground v.1.15,2013-06-24 00:45:00,
2013-06-23 19:55:00,84.9,68.5,29.81,ESE,115,1.0,1.0,58,0.00,,,0.00,Wunderground v.1.15,2013-06-24 00:55:00,
2013-06-23 20:04:00,84.5,68.6,29.81,SE,124,0.0,2.0,59,0.00,,,0.00,Wunderground v.1.15,2013-06-24 01:04:00,
2013-06-23 20:09:00,84.3,68.4,29.81,SE,124,0.0,0.0,59,0.00,,,0.00,Wunderground v.1.15,2013-06-24 01:09:00,
2013-06-23 20:19:00,83.8,68.4,29.81,SE,124,0.0,0.0,60,0.00,,,0.00,Wunderground v.1.15,2013-06-24 01:19:00,
2013-06-23 20:29:00,83.2,68.3,29.81,SE,124,0.0,0.0,61,0.00,,,0.00,Wunderground v.1.15,2013-06-24 01:29:00,
2013-06-23 20:39:00,82.8,68.0,29.82,SE,124,0.0,0.0,61,0.00,,,0.00,Wunderground v.1.15,2013-06-24 01:39:00,
2013-06-23 20:49:00,82.2,67.9,29.83,SE,124,0.0,0.0,62,0.00,,,0.00,Wunderground v.1.15,2013-06-24 01:49:00,
2013-06-23 20:59:00,81.8,68.0,29.83,ESE,120,0.0,0.0,63,0.00,,,0.00,Wunderground v.1.15,2013-06-24 01:59:00,
2013-06-23 21:05:00,81.4,68.1,29.83,ESE,120,0.0,0.0,64,0.00,,,0.00,Wunderground v.1.15,2013-06-24 02:05:00,
2013-06-23 21:14:00,81.1,67.8,29.83,ENE,74,0.0,0.0,64,0.00,,,0.00,Wunderground v.1.15,2013-06-24 02:14:00,
2013-06-23 21:19:00,80.9,67.6,29.84,SE,126,0.0,0.0,64,0.00,,,0.00,Wunderground v.1.15,2013-06-24 02:19:00,
2013-06-23 21:29:00,80.7,67.8,29.84,SSE,157,0.0,0.0,65,0.00,,,0.00,Wunderground v.1.15,2013-06-24 02:29:00,
2013-06-23 21:40:00,80.5,67.6,29.84,SE,145,0.0,0.0,65,0.00,,,0.00,Wunderground v.1.15,2013-06-24 02:40:00,
2013-06-23 21:50:00,80.3,67.5,29.85,SE,145,0.0,0.0,65,0.00,,,0.00,Wunderground v.1.15,2013-06-24 02:50:00,
2013-06-23 22:00:00,80.1,67.7,29.85,SE,128,0.0,0.0,66,0.00,,,0.00,Wunderground v.1.15,2013-06-24 03:00:00,
2013-06-23 22:05:00,79.9,67.5,29.86,SE,128,0.0,0.0,66,0.00,,,0.00,Wunderground v.1.15,2013-06-24 03:05:00,
2013-06-23 22:10:00,79.8,67.4,29.86,SE,128,0.0,0.0,66,0.00,,,0.00,Wunderground v.1.15,2013-06-24 03:10:00,
2013-06-23 22:19:00,79.6,67.7,29.86,ESE,123,0.0,0.0,67,0.00,,,0.00,Wunderground v.1.15,2013-06-24 03:19:00,
2013-06-23 22:25:00,79.4,67.5,29.86,ESE,121,0.0,0.0,67,0.00,,,0.00,Wunderground v.1.15,2013-06-24 03:25:00,
2013-06-23 22:35:00,79.0,67.5,29.87,SSE,153,0.0,0.0,68,0.00,,,0.00,Wunderground v.1.15,2013-06-24 03:35:00,
2013-06-23 22:45:00,78.6,67.6,29.87,SSE,150,0.0,0.0,69,0.00,,,0.00,Wunderground v.1.15,2013-06-24 03:45:00,
2013-06-23 22:55:00,78.3,67.3,29.87,SE,144,0.0,0.0,69,0.00,,,0.00,Wunderground v.1.15,2013-06-24 03:55:00,
2013-06-23 23:05:00,78.1,67.1,29.88,SE,140,0.0,0.0,69,0.00,,,0.00,Wunderground v.1.15,2013-06-24 04:05:00,
2013-06-23 23:09:00,77.9,67.3,29.88,SE,140,0.0,0.0,70,0.00,,,0.00,Wunderground v.1.15,2013-06-24 04:09:00,
2013-06-23 23:15:00,77.7,67.1,29.88,SE,140,0.0,0.0,70,0.00,,,0.00,Wunderground v.1.15,2013-06-24 04:15:00,
2013-06-23 23:25:00,77.4,67.3,29.87,SE,134,0.0,0.0,71,0.00,,,0.00,Wunderground v.1.15,2013-06-24 04:25:00,
2013-06-23 23:29:00,77.4,67.3,29.87,SE,134,0.0,0.0,71,0.00,,,0.00,Wunderground v.1.15,2013-06-24 04:29:00,
2013-06-23 23:40:00,77.0,66.9,29.88,South,178,0.0,0.0,71,0.00,,,0.00,Wunderground v.1.15,2013-06-24 04:40:00,
2013-06-23 23:49:00,76.7,67.0,29.88,South,178,0.0,0.0,72,0.00,,,0.00,Wunderground v.1.15,2013-06-24 04:49:00,
2013-06-23 23:54:00,76.7,67.0,29.88,SSE,155,0.0,0.0,72,0.00,,,0.00,Wunderground v.1.15,2013-06-24 04:54:00,
2013-06-23 23:59:00,76.5,66.8,29.88,SSE,155,0.0,0.0,72,0.00,,,0.00,Wunderground v.1.15,2013-06-24 04:59:00,